SL-12 R/B(2), 23429

Orbit data source: Space-Track

SL-12 R/B(2), 23429 is space debris in GEO originally from a launch on Fri, 16 Dec 1994 UTC launched from the Tyuratam Missile And Space Complex (TTMTR). Debris objects in space refer to the collection of defunct objects orbiting the Earth. Examples of debris include non-operational satellites, rocket bodies, and fragments generated from explosions, collisions, or faulty payload assembly.

Loading next visibility...
Identifier
23429, 1994-082D
Orbit
GEO
Country
Flag of CISCIS
Related business
Manufacturer
RKKE
Mission
Spacecraft
Bus & Motor
BLOK DM, Unknown motor
Mass
2,440 kg wet, 2,440 kg dry
Launch date (UTC)
1994-12-16 (32 years ago)
Launch vehicle
Unknown
Launch site
Tyuratam Missile And Space Complex (TTMTR)
Object type
Payload
Rocket body
Debris
Shape & HBR
Cyl, 3.1 m
Radar Cross Section
23.597 m², Large (>1 m²)

Expand to show TLE details & history
Last TLE update: 2 days ago

TLE from 2 days ago
0 SL-12 R/B(2)
1 23429U 94082D   26171.39495329 -.00000208  00000-0  00000+0 0  9994
2 23429  14.5731 354.0518 0027334 139.8962 173.8189  1.00802015115928
Epoch: 2026-06-20T09:28Z
TLE epoch observation values (Epoch: 2026-06-20T09:28:43.964Z)
Latitude
-10.48634°
Longitude
-102.04931°
Altitude
35,754.462 km
Speed
3.072 km/s
True Right ascension
20h 34m 58s
True Declination
-10° 28' 33"
Sunlit
Object was in daylight at epoch
Visualization orbit readout
Latitude
Unknown
Longitude
Unknown
Altitude
Unknown
Speed
Unknown
Apparent Right ascension
Unknown
Apparent Declination
Unknown
Sunlit
N/A
Visualization observer readout
Local Sidereal Time
02:13:17
Azimuth
Unknown
Elevation
Unknown
Doppler factor
Unknown
Orbital elements
Apogee altitude
35,754.43 km
Perigee altitude
35,524.727 km
Semi-major axis
42,017.716 km
Eccentricity
0.00273
Inclination
14.5731°
RAAN
354.0518°
Arg. of periapsis
139.8962°
True anomaly
173.85251°
Mean anomaly
173.8189°
Eccentric anomaly
173.83572°
Mean motion
0.252 °/min
Orbital period
1,428.59 mins
BSTAR
0
Loading maneuver chart data...
Computing Atmospheric mass density...
Loading historical data...
Loading historical data...
Loading historical data...
Loading historical data...
Loading historical data...
Loading historical data...
Loading historical data...

Documentation

Showing up to 5 results
|